Weather History for KPHX - June, 2014

Change the Weather History Date:

Monday, June 16, 2014

  Actual Average Record
Temperature  
Mean Temperature 90 °F 91 °F  
Max Temperature 105 °F 104 °F 115 °F (1974)
Min Temperature 75 °F 78 °F 54 °F (1907)
Degree Days  
Heating Degree Days 0 0  
Month to date heating degree days 0 0  
Since 1 June heating degree days 0 0  
Since 1 July heating degree days 546 935  
Cooling Degree Days 25 26  
Month to date cooling degree days 448 384  
Year to date cooling degree days 1523 1270  
Since 1 June cooling degree days 448 384  
Growing Degree Days 40 (Base 50)    
Moisture  
Dew Point 24 °F    
Average Humidity 13    
Maximum Humidity 21    
Minimum Humidity 4    
Precipitation  
Precipitation 0.00 in 0.00 in 0.01 in (1930)
Month to date precipitation 0.00 0.00  
Year to date precipitation 0.99 3.21  
Snow  
Snow 0.00 in - - ()
Month to date snowfall 0.0  
Year to date snowfall 0.0  
Since 1 July snowfall 0.0  
Snow Depth 0.00 in    
Sea Level Pressure  
Sea Level Pressure 29.70 in    
Wind  
Wind Speed 10 mph (WSW)    
Max Wind Speed 24 mph    
Max Gust Speed 35 mph    
Visibility 10 miles    
Events      
T = Trace of Precipitation, MM = Missing Value Source: NWS Daily Summary

Daily Weather History Graph

Daily Weather History Graph

Search for Another Location

Airport or City:

Trip Planner

Search our weather history database for the weather conditions in past years. The results will help you decide how hot, cold, wet, or windy it might be!

Date:

Astronomy

Jun. 16, 2014 Rise Set
Actual Time 5:17 AM MST 7:39 PM MST
Civil Twilight 4:49 AM MST 8:08 PM MST
Nautical Twilight 4:13 AM MST 8:44 PM MST
Astronomical Twilight 3:34 AM MST 9:22 PM MST
Moon 10:45 PM MST (6/16) 9:16 AM MST (6/16)
Length of Visible Light 15h 19m
Length of Day
14h 21m
Waning Gibbous, 82% of the Moon is Illuminated
Jun 16
Waning Gibbous
Jun 19
Last Quarter
Jun 27
New
Jul 5
First Quarter
Jul 12
Full

Hourly Weather History & Observations

Time (MST) Temp. Dew Point Humidity Pressure Visibility Wind Dir Wind Speed Gust Speed Precip Events Conditions
12:51 AM 84.9 °F 28.9 °F 13% 29.66 in 10.0 mi Calm Calm - N/A   Partly Cloudy
1:51 AM 81.0 °F 32.0 °F 17% 29.68 in 10.0 mi East 6.9 mph - N/A   Partly Cloudy
2:51 AM 79.0 °F 30.9 °F 17% 29.69 in 10.0 mi East 6.9 mph - N/A   Partly Cloudy
3:51 AM 79.0 °F 32.0 °F 18% 29.70 in 10.0 mi ENE 5.8 mph - N/A   Partly Cloudy
4:51 AM 75.9 °F 34.0 °F 22% 29.71 in 10.0 mi East 8.1 mph - N/A   Partly Cloudy
5:51 AM 75.9 °F 27.0 °F 16% 29.72 in 10.0 mi East 9.2 mph - N/A   Partly Cloudy
6:51 AM 79.0 °F 28.0 °F 15% 29.73 in 10.0 mi East 8.1 mph - N/A   Partly Cloudy
7:51 AM 82.4 °F 28.4 °F 14% 29.81 in 10.0 mi East 5.8 mph - N/A   Partly Cloudy
8:51 AM 88.0 °F 27.0 °F 11% 29.75 in 10.0 mi Variable 3.5 mph - N/A   Partly Cloudy
9:51 AM 91.9 °F 24.1 °F 9% 29.76 in 10.0 mi East 3.5 mph - N/A   Partly Cloudy
10:51 AM 95.0 °F 21.9 °F 7% 29.76 in 10.0 mi Variable 3.5 mph - N/A   Partly Cloudy
11:51 AM 99.0 °F 24.1 °F 7% 29.75 in 10.0 mi WSW 15.0 mph 20.7 mph N/A   Scattered Clouds
12:51 PM 100.9 °F 23.0 °F 6% 29.73 in 10.0 mi West 12.7 mph 27.6 mph N/A   Scattered Clouds
1:51 PM 102.0 °F 26.1 °F 7% 29.71 in 10.0 mi West 13.8 mph - N/A   Mostly Cloudy
2:51 PM 104.0 °F 26.1 °F 6% 29.69 in 10.0 mi West 17.3 mph - N/A   Mostly Cloudy
3:51 PM 102.9 °F 18.0 °F 5% 29.67 in 10.0 mi West 15.0 mph 24.2 mph N/A   Mostly Cloudy
4:51 PM 102.0 °F 16.0 °F 4% 29.66 in 10.0 mi West 19.6 mph 26.5 mph N/A   Mostly Cloudy
5:51 PM 100.9 °F 15.1 °F 4% 29.65 in 10.0 mi WNW 19.6 mph 24.2 mph N/A   Scattered Clouds
6:51 PM 100.0 °F 16.0 °F 5% 29.65 in 10.0 mi West 21.9 mph - N/A   Scattered Clouds
7:51 PM 98.1 °F 15.1 °F 5% 29.65 in 10.0 mi West 16.1 mph - N/A   Scattered Clouds
8:51 PM 93.9 °F 19.9 °F 7% 29.65 in 10.0 mi WSW 6.9 mph - N/A   Scattered Clouds
9:51 PM 91.0 °F 21.0 °F 8% 29.68 in 10.0 mi SW 4.6 mph - N/A   Scattered Clouds
10:51 PM 91.0 °F 19.0 °F 7% 29.68 in 10.0 mi SW 5.8 mph - N/A   Scattered Clouds
11:51 PM 91.9 °F 14.0 °F 6% 29.68 in 10.0 mi SW 5.8 mph - N/A   Scattered Clouds